Location: R�serve Fauniques des Laurentides
(47.3100°N, 71.1900°W)
Time: 17:53:43
(UTC-04:00)

Cosmos 1674 - Visible Passes

Search period start: 05 May 2016 00:00
Search period end: 15 May 2016 00:00
Orbit: 500 x 527 km, 82.5° (Epoch: 05 May)

Date Brightness Start Highest point End Pass type
(mag) Time Alt. Az. Time Alt. Az. Time Alt. Az.
05 May 4.4 03:52:59 10° SSE 03:56:23 32° E 03:59:46 10° NNE visible
06 May 4.7 03:37:36 10° SSE 03:40:47 26° E 03:43:58 10° NNE visible
07 May 5.0 03:22:16 10° SE 03:25:12 22° E 03:28:08 10° NE visible
08 May 5.2 03:07:01 10° SE 03:09:37 18° E 03:12:13 10° NE visible
08 May 3.4 04:41:32 10° SW 04:45:01 35° WNW 04:48:32 10° N visible
09 May 5.4 02:51:52 10° ESE 02:54:02 15° E 02:56:13 10° NE visible
09 May 3.1 04:25:44 10° SSW 04:29:20 43° WNW 04:32:58 10° N visible
10 May 5.5 02:36:55 10° ESE 02:38:28 12° E 02:40:01 10° ENE visible
10 May 2.9 04:10:11 11° SSW 04:13:40 53° WNW 04:17:22 10° N visible
11 May 2.7 03:54:54 15° SSW 03:57:59 67° W 04:01:45 10° N visible
12 May 2.6 03:39:35 18° SSW 03:42:20 83° W 03:46:06 10° N visible
13 May 2.7 03:24:14 21° S 03:26:39 79° E 03:30:26 10° NNE visible
14 May 2.9 03:08:52 24° S 03:11:00 63° E 03:14:44 10° NNE visible
